Content
SEND FEEDBACK

Daily
Averages
Monthly
Summary
United Kingdom

LONDON, ENGLAND


Home > Europe > United Kingdom > England
Elevation: 203 feet     Latitude: 51 09N     Longitude: 000 11W

WEATHER
 
SELECT A DAY
Number of Records: 293,658;   Date Range: 7/1/96 - 8/21/14
 
SHARE

PRINT THIS DATA

[ ← Previous Day ]
WEATHER ALMANAC - APRIL 18, 2013
[ Next Day → ]
[ °C ]   °F
Weather ElementAverageHighLow
Temperature50.1 °F55.4 °F (11:50 am)46.4 °F (8:50 pm)
Dewpoint40.7 °F46.4 °F (5:20 pm)35.6 °F (10:20 pm)
Humidity70.5 %87 % (5:20 pm)58 % (11:50 am)
Barometer29.96 in30.12 in (11:50 pm)29.83 in (12:50 am)
Wind Speed16.5 mph23 mph (3:50 pm)
Wind Gust34.5 mph (2:50 pm)
Weather ElementAverage
Visibility6 mi
Wind DirectionWSW (234 °)

Weather ElementTotal
Precipitation---
Heating Degree Days14.1 (Base 65)
Growing Degree Days0.9 (Base 50)
Averaged from 47 records on April 18, 2013
WEATHER CONDITIONS BREAKOUT
WIND DIRECTION BREAKOUT
WEATHER BY HOUR - APRIL 18, 2013
[ °C ]   °F
Local TimeTemperatureDewpointHumidityBarometerVisibilityWind DirectionWind SpeedGust SpeedPrecipitationEventsConditions
12:50 AM50.0 °F42.8 °F76 %29.83 in5.0 miSW (230°)19.6 mph31.1 mphMostly Cloudy
1:20 AM50.0 °F42.8 °F76 %29.86 in5.0 miSW (230°)18.4 mphOvercast
1:50 AM50.0 °F42.8 °F76 %29.86 in5.0 miSW (230°)17.3 mphOvercast
2:20 AM48.2 °F42.8 °F82 %29.86 in5.0 miSW (230°)17.3 mph31.1 mphOvercast
2:50 AM48.2 °F41.0 °F76 %29.86 in6.2 miSW (230°)17.3 mphMostly Cloudy
3:20 AM48.2 °F41.0 °F76 %29.86 in6.2 miWSW (240°)18.4 mph29.9 mphMostly Cloudy
3:50 AM48.2 °F39.2 °F71 %29.86 in6.2 miWSW (240°)20.7 mphMostly Cloudy
4:20 AM48.2 °F39.2 °F71 %29.86 in6.2 miSW (230°)16.1 mphMostly Cloudy
4:50 AM48.2 °F39.2 °F71 %29.86 in6.2 miWSW (240°)15.0 mph27.6 mphMostly Cloudy
5:20 AM48.2 °F41.0 °F76 %29.86 in6.2 miSW (230°)18.4 mphMostly Cloudy
5:50 AM48.2 °F41.0 °F76 %29.86 in6.2 miSW (230°)18.4 mph33.4 mphMostly Cloudy
6:20 AM48.2 °F39.2 °F71 %29.89 in6.2 miSW (230°)17.3 mphPartly Cloudy
6:50 AM48.2 °F39.2 °F71 %29.89 in6.2 miSW (230°)19.6 mphScattered Clouds
7:20 AM48.2 °F39.2 °F71 %29.89 in6.2 miSW (230°)19.6 mph31.1 mphScattered Clouds
7:50 AM50.0 °F39.2 °F66 %29.89 in6.2 miSW (230°)19.6 mphScattered Clouds
8:20 AM50.0 °F39.2 °F66 %29.92 in6.2 miSW (230°)21.9 mphScattered Clouds
8:50 AM50.0 °F39.2 °F66 %29.92 in6.2 miSW (230°)19.6 mphMostly Cloudy
9:20 AM50.0 °F41.0 °F71 %29.92 in6.2 miSW (230°)17.3 mphMostly Cloudy
9:50 AM50.0 °F41.0 °F71 %29.95 in6.2 miSW (230°)18.4 mphMostly Cloudy
10:20 AM51.8 °F41.0 °F67 %29.95 in6.2 miSW (230°)19.6 mphRainLight Rain Showers
10:50 AM51.8 °F41.0 °F67 %29.95 in6.2 miSW (230°)19.6 mphMostly Cloudy
11:20 AM53.6 °F41.0 °F62 %29.95 in6.2 miSW (230°)19.6 mphMostly Cloudy
11:50 AM55.4 °F41.0 °F58 %29.95 in6.2 miSW (230°)17.3 mph28.8 mphScattered Clouds
12:20 PM53.6 °F41.0 °F62 %29.98 in6.2 miSW (230°)21.9 mphMostly Cloudy
12:50 PM55.4 °F41.0 °F58 %29.98 in6.2 miSW (230°)21.9 mphMostly Cloudy
1:20 PM55.4 °F41.0 °F58 %29.98 in6.2 miSW (230°)21.9 mphScattered Clouds
1:50 PM55.4 °F41.0 °F58 %29.98 in6.2 miSW (220°)20.7 mphScattered Clouds
2:20 PM55.4 °F41.0 °F58 %29.98 in6.2 miSW (230°)18.4 mph31.1 mphScattered Clouds
2:50 PM53.6 °F41.0 °F62 %29.98 in6.2 miSW (220°)20.7 mph34.5 mphMostly Cloudy
3:20 PM53.6 °F42.8 °F67 %29.98 in6.2 miSW (230°)20.7 mph33.4 mphScattered Clouds
3:50 PM53.6 °F41.0 °F62 %29.98 in6.2 miSW (220°)23.0 mphMostly Cloudy
4:20 PM53.6 °F41.0 °F62 %29.98 in6.2 miSW (220°)19.6 mphScattered Clouds
4:50 PM50.0 °F44.6 °F82 %30.01 in4.3 miWest (270°)15.0 mphRainRain
5:20 PM50.0 °F46.4 °F87 %30.01 in6.2 miWSW (250°)11.5 mphScattered Clouds
5:50 PM48.2 °F42.8 °F82 %30.01 in6.2 miSW (230°)16.1 mph27.6 mphScattered Clouds
6:20 PM50.0 °F44.6 °F82 %30.01 in6.2 miWSW (240°)10.4 mphMostly Cloudy
6:50 PM50.0 °F44.6 °F82 %30.01 in6.2 miSW (230°)9.2 mphScattered Clouds
7:20 PM50.0 °F42.8 °F76 %30.04 in6.2 miSW (230°)10.4 mphPartly Cloudy
7:50 PM50.0 °F42.8 °F76 %30.04 in6.2 miWSW (240°)10.4 mphScattered Clouds
8:20 PM48.2 °F42.8 °F82 %30.06 in6.2 miSW (230°)6.9 mphPartly Cloudy
8:50 PM46.4 °F39.2 °F76 %30.06 inWest (260°)10.4 mphClear
9:20 PM46.4 °F37.4 °F71 %30.06 inWest (260°)12.7 mphClear
9:50 PM46.4 °F37.4 °F71 %30.09 in6.2 miWSW (250°)10.4 mphPartly Cloudy
10:20 PM46.4 °F35.6 °F66 %30.09 in6.2 miWSW (250°)9.2 mphPartly Cloudy
10:50 PM46.4 °F35.6 °F66 %30.09 inWSW (240°)10.4 mphClear
11:20 PM46.4 °F35.6 °F66 %30.09 inWSW (240°)10.4 mphClear
11:50 PM46.4 °F35.6 °F66 %30.12 inSW (230°)9.2 mphClear
Hourly data recorded from EGKK, located miles away from London, England







STORIES FROM OUR PARTNERS